Flag for U.S.A. Weather past 2 weeks in Fort Worth, Texas, U.S.A.

Now
95 °F

Sunny.


Feels Like: 99 °F
Forecast: 79 / 99 °F
Wind: 10 mph from South

Location: Meacham International Airport

Current Time: Jul 28, 2015 at 1:18:04 PM

Latest Report: Jul 28, 2015 at 12:53 PM


Visibility: 10 mi

Pressure: 29.91 "Hg

Humidity: 40%

Dew point: 67 °F

Location of Fort WorthLocation

Historic Weather in Fort Worth — Graph

°F

Fort Worth temperature yesterday

Maximum temperature yesterday: 101 °F (at 2:53 PM)
Minimum temperature yesterday: 80 °F (at 4:53 AM)
Average temperature yesterday: 91 °F

Past Weeks' High & Low Weather Summary

 TemperatureHumidityPressure
High101 °F (Jul 20, 3:53 PM)82% (Jul 18, 6:53 AM)30.00 "Hg (Jul 18, 6:53 AM)
Low76 °F (Jul 16, 6:53 AM)20% (Jul 25, 3:53 PM)29.75 "Hg (Jul 21, 6:53 PM)
Average89 °F51%29.87 "Hg
* Reported Jul 13 11:53 AM — Jul 28 11:53 AM, Fort Worth, Weather by CustomWeather, © 2015

Note: Actual official high and low records may vary slightly from our data, if they occured in-between our weather recording intervals... More about our weather records

Advertising

Fort Worth weather history for previous 24 hours

 ConditionsComfort  
Time TempWeatherWind HumidityBarometerVisibility
11:53 AM
Tue, Jul 28
92 °FSunny.10 mph49%29.92 "Hg10 mi
10:53 AM90 °FSunny.12 mph52%29.92 "Hg10 mi
9:53 AM87 °FSunny.13 mph55%29.93 "Hg10 mi
8:53 AM85 °FSunny.15 mph57%29.93 "Hg10 mi
7:53 AM82 °FWarm.9 mph70%29.92 "Hg10 mi
6:53 AM81 °FClear.10 mph72%29.90 "Hg10 mi
5:53 AM82 °FClear.10 mph67%29.88 "Hg10 mi
4:53 AM82 °FClear.10 mph67%29.87 "Hg10 mi
3:53 AM84 °FClear.12 mph61%29.86 "Hg10 mi
2:53 AM85 °FClear.12 mph57%29.87 "Hg10 mi
1:53 AM87 °FClear.13 mph51%29.88 "Hg10 mi
12:53 AM88 °FClear.10 mph50%29.88 "Hg10 mi
11:53 PM
Mon, Jul 27
89 °FClear.13 mph46%29.88 "Hg10 mi
10:53 PM90 °FClear.10 mph43%29.88 "Hg10 mi
9:53 PM91 °FClear.10 mph44%29.85 "Hg10 mi
8:53 PM94 °FSunny.10 mph38%29.83 "Hg10 mi
7:53 PM96 °FSunny.14 mph36%29.81 "Hg10 mi
6:53 PM98 °FSunny.17 mph34%29.81 "Hg10 mi
5:53 PM100 °FSunny.15 mph31%29.82 "Hg10 mi
4:53 PM101 °FSunny.16 mph29%29.83 "Hg10 mi
3:53 PM100 °FSunny.10 mph30%29.84 "Hg10 mi
2:53 PM101 °FSunny.10 mph30%29.85 "Hg10 mi
1:53 PM99 °FSunny.23 mph32%29.87 "Hg10 mi
Weather by CustomWeather, © 2015

See weather overviewHow to use our weather pages